Los Angeles, CA

7:59 PM PST on December 12, 2017 (GMT -0800)
Los Angeles International

Weather History for KLAX - April, 2014

Change the Weather History Date:

Tuesday, April 1, 2014

  Actual Average Record
Temperature  
Mean Temperature 57 °F 59 °F  
Max Temperature 62 °F 65 °F 89 °F (1985)
Min Temperature 52 °F 52 °F 42 °F (1998)
Degree Days  
Heating Degree Days 8 7  
Month to date heating degree days 8 7  
Since 1 July heating degree days 653 1157  
Cooling Degree Days 0 0  
Month to date cooling degree days 0 0  
Year to date cooling degree days 35 15  
Growing Degree Days 7 (Base 50)    
Moisture  
Dew Point 46 °F    
Average Humidity 65    
Maximum Humidity 83    
Minimum Humidity 46    
Precipitation  
Precipitation 0.12 in 0.03 in 0.98 in (1982)
Month to date precipitation 0.12 0.03  
Year to date precipitation 3.27 7.84  
Since 1 July precipitation 4.31  
Sea Level Pressure  
Sea Level Pressure 29.98 in    
Wind  
Wind Speed 16 mph (West)    
Max Wind Speed 25 mph    
Max Gust Speed 30 mph    
Visibility 10 miles    
Events Rain    
T = Trace of Precipitation, MM = Missing Value Source: NWS Daily Summary

Daily Weather History Graph

Daily Weather History Graph

Search for Another Location

Airport or City:

Trip Planner

Search our weather history database for the weather conditions in past years. The results will help you decide how hot, cold, wet, or windy it might be!

Date:

Astronomy

Apr. 01, 2014 Rise Set
Actual Time 6:40 AM PDT 7:14 PM PDT
Civil Twilight 6:15 AM PDT 7:39 PM PDT
Nautical Twilight 5:46 AM PDT 8:09 PM PDT
Astronomical Twilight 5:16 AM PDT 8:39 PM PDT
Moon 7:52 AM PDT (4/1) 9:35 PM PDT (4/1)
Length of Visible Light 13h 23m
Length of Day
12h 33m
Waxing Crescent, 5% of the Moon is Illuminated
Apr 1
Waxing Crescent
Apr 7
First Quarter
Apr 15
Full
Apr 22
Last Quarter
Apr 28
New

Hourly Weather History & Observations

Time (PDT) Temp. Dew Point Humidity Pressure Visibility Wind Dir Wind Speed Gust Speed Precip Events Conditions
12:53 AM 59.0 °F 48.0 °F 67% 29.98 in 10.0 mi SSW 11.5 mph 17.3 mph N/A   Mostly Cloudy
1:20 AM 57.2 °F 50.0 °F 77% 29.98 in 9.0 mi SSW 12.7 mph 19.6 mph 0.00 in Rain Light Rain
1:48 AM 55.4 °F 51.8 °F 88% 29.99 in 5.0 mi West 16.1 mph - 0.07 in Rain Light Rain
1:53 AM 55.0 °F 51.1 °F 86% 29.99 in 7.0 mi West 18.4 mph - 0.07 in Rain Light Rain
2:53 AM 55.0 °F 50.0 °F 83% 29.98 in 10.0 mi West 13.8 mph - 0.00 in   Overcast
3:50 AM 53.6 °F 48.2 °F 82% 29.97 in 10.0 mi West 18.4 mph - N/A   Mostly Cloudy
3:53 AM 54.0 °F 48.9 °F 83% 29.97 in 10.0 mi West 18.4 mph - N/A   Mostly Cloudy
4:53 AM 54.0 °F 46.0 °F 75% 29.96 in 10.0 mi West 12.7 mph - N/A   Scattered Clouds
5:53 AM 53.1 °F 45.0 °F 74% 29.96 in 10.0 mi West 17.3 mph - N/A   Scattered Clouds
6:50 AM 53.6 °F 44.6 °F 72% 29.98 in 10.0 mi WNW 11.5 mph - N/A   Mostly Cloudy
6:53 AM 54.0 °F 45.0 °F 72% 29.98 in 10.0 mi WNW 11.5 mph 19.6 mph N/A   Mostly Cloudy
7:15 AM 53.6 °F 42.8 °F 67% 29.99 in 10.0 mi NW 5.8 mph - N/A   Scattered Clouds
7:53 AM 54.0 °F 43.0 °F 66% 29.99 in 10.0 mi NNW 6.9 mph - N/A   Scattered Clouds
8:53 AM 55.0 °F 43.0 °F 64% 30.01 in 10.0 mi West 6.9 mph - N/A   Mostly Cloudy
9:53 AM 57.0 °F 45.0 °F 64% 30.02 in 10.0 mi West 12.7 mph - N/A   Mostly Cloudy
10:53 AM 57.9 °F 44.1 °F 60% 30.03 in 10.0 mi West 13.8 mph - N/A   Mostly Cloudy
11:53 AM 60.1 °F 43.0 °F 53% 30.03 in 10.0 mi West 17.3 mph 23.0 mph N/A   Scattered Clouds
12:53 PM 62.1 °F 41.0 °F 46% 30.01 in 10.0 mi West 20.7 mph 26.5 mph N/A   Scattered Clouds
1:53 PM 62.1 °F 41.0 °F 46% 30.00 in 10.0 mi West 19.6 mph - N/A   Scattered Clouds
2:53 PM 62.1 °F 43.0 °F 50% 29.99 in 10.0 mi WSW 18.4 mph - N/A   Scattered Clouds
3:53 PM 61.0 °F 44.1 °F 54% 29.97 in 10.0 mi West 21.9 mph - N/A   Partly Cloudy
4:53 PM 61.0 °F 45.0 °F 56% 29.97 in 10.0 mi West 19.6 mph - N/A   Partly Cloudy
5:53 PM 60.1 °F 45.0 °F 57% 29.96 in 10.0 mi West 21.9 mph - N/A   Partly Cloudy
6:53 PM 57.9 °F 45.0 °F 62% 29.96 in 10.0 mi West 23.0 mph - N/A   Scattered Clouds
7:53 PM 57.0 °F 46.0 °F 67% 29.96 in 10.0 mi West 17.3 mph - N/A   Partly Cloudy
8:53 PM 57.0 °F 46.0 °F 67% 29.97 in 10.0 mi West 19.6 mph - N/A   Partly Cloudy
9:53 PM 57.0 °F 46.9 °F 69% 29.98 in 10.0 mi West 17.3 mph - N/A   Partly Cloudy
10:53 PM 55.9 °F 46.0 °F 69% 29.98 in 10.0 mi West 16.1 mph - N/A   Scattered Clouds
11:53 PM 57.0 °F 46.0 °F 67% 29.97 in 10.0 mi WSW 9.2 mph - N/A   Mostly Cloudy